RH
32 22 19 15 13 11 12 10 10 11 23 30 39 28 33 40 46 52 65 77 85 84 77 90 94 100 100 100 88 76 67 56 49 45 46 36 44 55 59 73 81 89 93 93 92 76 64 43 44
23 22 19 12 12 12 10 9 10 16 26 43 48 46 45 43 54 62 74 83 84 84 83 80 94 98 93 78 69 61 53 46 38 45 46 40 53 56 69 79 84 88 90 93 82 76 62 44 42
22 18 14 13 12 12 11 10 12 27 37 44 48 50 47 45 54 66 70 79 87 84 84 85 85 79 71 67 58 48 44 42 70 64 52 53 58 60 70 81 79 77 89 93 80 68 42 40 41
15 10 11 12 12 11 9 8 20 25 35 39 43 50 60 75 78 87 83 85 91 88 87 86 88 88 71 53 52 57 70 86 79 59 59 62 56 68 74 76 81 89 92 88 65 43 43 43 42
13 9 10 12 12 8 8 14 25 31 38 39 41 52 62 88 99 99 93 90 95 99 95 95 90 94 86 88 82 81 87 81 70 66 65 60 57 61 64 63 71 78 72 55 44 46 44 43 43
12 11 12 12 10 8 9 24 35 39 42 45 44 49 68 89 99 100 99 99 97 91 94 100 96 95 90 80 81 93 93 84 82 75 74 59 56 53 52 51 53 51 47 46 46 45 45 45 44
14 14 13 12 10 12 15 35 39 41 42 40 38 44 72 95 99 100 100 100 100 98 99 99 100 98 93 76 76 71 91 91 85 78 76 55 53 50 48 45 42 42 44 46 47 47 46 45 42
11 12 14 11 11 16 19 35 42 44 39 40 41 48 68 98 99 99 100 100 93 99 91 94 84 78 75 64 63 69 83 87 79 77 58 54 52 48 46 45 46 48 49 49 48 48 46 43 38
12 13 13 13 13 16 24 31 48 42 41 48 51 48 58 100 100 98 99 100 99 90 100 96 82 82 81 76 78 70 79 70 61 51 47 53 63 60 56 63 52 50 50 50 49 46 41 36 33
14 14 12 10 10 12 14 28 37 43 43 48 70 86 98 100 89 88 97 99 100 100 100 100 100 96 83 86 64 68 55 80 58 47 65 59 63 58 68 71 54 53 51 49 45 40 39 38 36
14 13 12 12 12 11 12 23 24 33 31 37 54 88 92 93 87 90 95 96 98 100 100 100 99 91 84 84 83 68 84 62 49 57 65 68 67 69 67 68 63 60 52 49 45 47 43 44 36
16 12 13 13 12 14 17 21 32 32 39 43 51 76 89 91 91 92 94 98 98 98 97 94 82 73 71 68 59 52 49 37 58 73 69 69 64 69 66 61 60 57 53 54 51 49 48 44 42
17 13 14 16 22 20 28 28 33 40 47 53 64 82 83 83 78 84 88 94 90 77 78 76 80 69 61 64 65 64 67 66 63 71 72 67 66 70 66 63 59 56 56 53 49 47 42 42 39
16 16 17 24 25 29 31 34 35 44 54 64 74 79 77 80 72 74 91 96 90 74 86 85 83 72 69 65 74 69 63 62 70 66 69 77 70 74 68 67 61 58 53 50 46 43 39 36 37
18 20 17 26 27 30 30 33 31 41 58 73 73 73 71 71 67 60 89 77 66 67 66 70 63 70 68 66 72 65 63 63 58 66 81 75 74 77 71 66 61 56 54 52 49 45 42 37 32
18 18 17 25 28 32 31 26 29 44 51 58 71 66 69 70 62 54 64 61 54 53 59 62 62 70 72 65 64 60 61 60 59 68 82 91 81 80 78 74 66 58 55 51 49 45 41 37 32
16 18 16 27 27 28 30 24 33 48 47 42 51 54 58 62 56 56 61 60 53 52 54 58 59 62 74 76 62 63 66 63 62 72 81 95 99 97 88 73 67 64 55 53 49 46 43 40 37
16 20 17 17 23 28 25 21 27 47 46 42 40 44 53 52 52 58 59 59 51 56 59 56 60 66 82 82 76 66 67 65 70 77 84 97 100 100 91 79 69 60 55 55 50 49 46 42 44
20 20 18 17 18 26 23 21 17 37 52 44 38 38 44 47 47 56 60 59 55 51 58 63 64 71 80 81 68 59 61 64 70 76 94 98 99 100 94 77 71 60 56 56 58 54 53 51 52
24 19 18 20 20 23 19 18 16 25 44 42 39 42 38 40 44 51 60 59 60 53 56 60 65 72 76 70 61 57 58 64 65 80 88 95 96 95 88 70 66 62 57 60 58 55 52 53 52
25 23 22 21 21 20 20 17 19 28 38 45 47 40 33 34 38 44 54 60 61 58 59 60 62 68 72 67 62 61 62 71 74 78 97 99 95 86 78 73 66 61 60 60 60 59 55 51 54
26 19 21 22 21 23 20 24 18 18 28 35 36 40 38 32 33 36 46 53 58 59 59 61 62 67 72 73 64 64 55 56 62 74 96 93 91 82 75 75 67 63 60 56 61 60 56 52 47
22 23 24 23 23 27 24 23 17 20 19 23 31 33 36 36 33 34 39 47 54 57 62 66 62 65 70 74 71 70 62 49 57 82 90 94 90 85 77 74 59 63 60 62 61 62 60 53 41
23 27 28 28 28 33 24 23 18 15 15 16 16 24 28 32 36 34 33 43 48 55 61 69 68 68 70 77 81 76 71 66 81 86 90 90 90 86 79 70 63 66 61 66 66 66 58 55 58
26 26 35 42 39 34 28 28 19 16 17 18 19 19 20 27 33 36 34 37 44 50 60 67 69 64 67 76 81 82 83 80 87 86 84 86 86 84 79 71 64 65 65 67 66 58 61 66 68
27 25 31 38 36 30 30 26 17 18 17 20 23 24 24 23 31 33 36 37 41 49 58 67 69 66 65 77 82 85 87 88 89 83 88 85 88 83 84 78 72 68 70 72 66 58 77 78 48
31 32 25 37 51 44 25 20 16 16 17 21 20 21 23 22 26 31 30 36 42 47 55 62 68 64 62 74 82 88 98 97 88 98 93 97 89 83 90 80 76 75 68 79 63 86 84 50 46
29 24 34 33 42 39 27 25 18 17 20 16 16 17 20 26 27 29 30 33 39 43 50 61 67 64 64 71 83 93 98 100 100 99 99 99 87 96 86 88 76 71 81 68 85 84 61 58 56
32 32 31 28 31 37 36 25 16 16 17 22 22 20 21 25 29 31 31 34 38 44 52 59 65 62 63 68 77 94 98 100 100 100 100 98 96 90 88 79 78 83 85 94 88 74 71 79 73
23 26 28 34 34 37 40 30 14 16 19 18 19 21 24 28 29 30 32 36 41 46 51 57 60 61 62 68 77 91 96 99 100 100 100 100 95 90 92 94 90 90 86 91 84 80 92 79 65
Wind_Speed
3 3 4 7 7 6 14 9 5 8 5 3 3 5 4 11 9 4 3 12 13 26 30 30 33 35 36 35 37 37 35 33 32 33 33 32 32 31 29 26 26 25 27 26 25 26 26 26 24
4 3 6 3 8 10 10 1 9 5 6 1 3 1 3 3 4 2 1 12 19 26 31 31 33 34 36 39 38 36 34 34 34 35 35 35 33 31 29 28 27 28 29 26 24 25 25 24 22
4 4 7 5 7 11 8 3 4 6 3 4 4 1 4 4 2 3 6 12 22 29 32 32 35 36 38 37 36 35 35 36 37 37 36 36 33 32 31 30 31 32 29 25 24 24 24 22 20
5 6 4 9 11 6 10 4 5 9 4 5 5 5 2 4 4 2 9 13 20 28 32 35 37 36 37 35 35 35 37 36 38 38 37 35 35 33 31 30 30 29 26 24 24 24 22 20 19
5 4 8 9 8 7 6 5 8 7 2 1 5 7 4 2 5 4 7 8 13 12 30 38 37 32 28 27 31 35 36 38 37 38 37 36 34 33 30 29 28 27 26 25 25 22 19 18 17
5 4 8 8 3 3 5 3 4 1 0 2 4 7 3 4 4 9 13 15 14 7 17 24 30 28 25 23 21 23 30 35 36 36 35 36 33 32 30 28 28 27 26 25 23 20 18 16 15
10 6 8 8 7 5 2 1 3 2 4 5 1 3 3 5 6 13 20 23 29 30 36 43 48 43 31 29 21 19 24 29 33 34 33 35 33 31 29 28 28 28 26 24 21 19 16 15 14
5 5 7 5 4 4 4 2 4 2 4 2 2 4 4 5 10 15 21 30 35 37 39 43 46 40 36 35 28 13 23 29 31 31 32 31 30 29 28 28 27 25 24 21 19 17 15 15 14
4 6 6 3 4 2 4 4 2 1 5 3 1 4 8 19 15 19 20 20 29 36 37 42 47 46 46 39 35 25 25 27 29 29 27 27 22 21 22 20 24 22 20 19 18 16 14 13 13
7 6 2 4 6 8 3 7 4 8 5 5 8 8 15 17 14 17 17 16 18 25 27 32 35 41 46 40 37 28 26 23 29 28 22 20 20 17 19 21 21 21 20 19 17 16 12 11 8
5 9 4 8 11 11 13 7 5 7 4 4 4 13 14 16 18 17 15 18 19 22 24 27 29 37 30 30 32 30 22 25 27 25 18 18 17 20 19 20 19 19 17 15 14 9 7 8 6
8 10 10 9 9 9 10 3 3 5 6 7 4 15 11 10 12 17 17 16 21 22 23 26 25 25 24 30 31 30 26 25 22 19 18 18 17 16 17 16 15 14 12 12 9 9 9 8 8
11 8 5 10 11 8 3 5 1 2 4 7 13 11 11 9 11 14 18 17 20 23 25 24 23 27 31 28 24 23 21 23 21 18 16 15 15 16 15 15 14 13 13 11 9 9 8 7 6
3 11 10 4 0 2 6 4 3 5 7 10 12 10 9 9 10 13 17 18 20 25 20 24 23 23 21 19 18 19 20 20 18 17 16 15 14 14 14 14 12 11 10 10 9 8 7 6 5
10 13 4 2 4 3 4 7 5 5 9 10 10 7 7 8 9 12 21 24 26 27 28 24 23 19 17 17 18 18 19 20 19 17 15 16 15 14 13 14 12 11 10 11 10 8 6 5 4
10 6 11 7 7 4 6 3 4 8 10 11 11 9 8 11 12 15 17 20 26 29 26 26 21 17 14 14 16 17 17 17 16 16 14 14 14 14 14 14 13 13 12 10 10 7 6 5 3
10 10 6 6 7 4 9 4 7 8 10 11 12 13 11 13 14 15 16 20 23 25 27 23 20 17 16 14 13 13 14 15 16 15 16 16 15 16 16 15 14 16 13 12 9 8 6 4 3
8 8 8 4 8 8 9 10 6 9 10 11 11 12 12 13 15 17 18 20 23 23 21 21 22 19 14 13 13 13 17 18 17 16 15 14 15 17 16 16 16 17 14 12 11 9 7 5 3
4 6 5 3 3 6 9 10 6 10 11 13 14 13 14 14 17 19 19 22 24 27 25 25 24 20 18 17 17 18 18 18 17 17 15 14 14 17 18 17 18 17 16 15 13 11 9 6 2
8 9 6 3 4 5 6 11 2 9 14 13 14 13 14 14 15 17 21 22 24 27 28 26 24 23 21 18 18 16 18 19 19 17 14 15 15 16 17 18 20 19 16 14 14 12 9 5 3
8 9 3 3 2 8 10 11 6 5 10 11 13 14 16 16 17 17 22 26 26 27 28 27 25 23 22 21 19 17 16 14 17 16 14 15 16 18 19 20 19 21 15 16 15 13 10 7 6
10 7 6 6 7 7 3 3 5 7 9 13 15 17 16 17 17 17 22 26 28 27 26 27 26 25 24 23 21 21 20 18 17 17 15 16 18 18 20 20 20 20 17 16 15 13 11 8 7
6 4 6 8 8 5 7 6 6 5 8 12 16 17 18 17 18 19 21 26 26 26 26 24 25 26 24 25 24 22 20 17 15 16 17 17 16 18 19 18 24 22 19 18 16 15 12 10 8
4 7 4 4 3 7 3 6 4 5 4 2 8 16 18 18 18 18 23 24 26 27 27 27 27 27 26 26 26 25 22 20 16 18 18 18 17 19 20 21 25 21 20 19 18 17 17 12 10
10 9 6 5 5 4 4 5 8 2 3 6 7 7 10 17 18 18 19 25 27 28 29 28 29 29 28 28 27 28 26 23 22 19 20 20 20 21 26 26 26 22 20 19 19 18 14 14 11
15 11 4 5 4 4 4 5 3 2 5 7 6 6 7 11 16 19 20 24 26 28 28 28 29 28 28 27 26 25 25 25 26 27 23 23 25 28 25 28 22 21 20 21 20 18 12 10 10
7 8 1 2 1 2 4 4 11 2 4 3 2 2 2 5 11 17 19 22 24 25 27 28 25 25 26 25 24 24 24 25 27 20 20 18 24 26 23 21 21 23 21 16 19 13 10 11 12
6 10 5 4 4 5 4 4 4 2 4 3 2 5 5 2 3 7 11 19 21 21 21 21 22 22 22 22 22 22 22 21 18 17 19 20 24 18 20 21 26 22 22 24 18 14 12 11 12
6 6 2 1 3 3 3 4 0 2 1 1 1 3 3 3 1 4 6 11 14 16 16 17 17 18 18 19 19 20 20 19 19 20 20 24 24 24 22 27 25 26 24 18 14 10 9 13 14
6 9 11 5 5 3 3 6 8 8 6 5 5 4 4 4 1 1 3 6 8 10 11 12 13 14 15 15 16 17 18 17 16 19 21 21 21 23 21 23 25 26 25 20 15 13 13 14 16
Wind_Direction
180 211 224 234 243 233 258 250 293 252 226 11 331 246 279 8 344 311 3 190 173 170 165 165 163 159 155 153 158 154 151 149 145 141 135 132 131 129 127 126 128 129 124 120 113 110 109 109 103
176 197 223 258 256 245 244 144 242 348 326 39 104 175 183 199 26 326 276 193 184 175 165 167 163 157 158 160 159 155 152 147 145 139 136 133 132 130 126 124 124 132 126 121 115 113 112 107 102
182 219 259 255 259 264 307 106 328 319 338 225 151 39 167 171 188 266 258 195 189 174 168 167 167 165 163 161 157 155 151 145 137 135 134 133 131 129 127 123 122 127 124 122 118 117 112 108 101
202 195 214 250 257 279 271 342 315 297 200 202 170 168 187 301 109 306 290 191 197 180 171 173 169 165 164 161 156 151 142 139 137 136 135 133 133 131 129 127 124 125 126 121 121 117 113 105 100
210 241 256 247 266 277 276 311 305 295 296 202 222 142 167 352 35 39 47 182 195 187 174 166 163 156 149 141 144 144 142 140 139 137 134 135 136 134 132 130 129 128 128 125 122 117 111 106 102
221 279 247 249 330 289 281 315 261 287 221 131 216 137 124 94 87 93 108 116 136 147 75 148 150 140 140 134 134 136 136 137 136 136 135 136 137 134 133 131 130 129 128 127 123 118 111 107 100
267 259 289 292 300 270 49 148 247 199 198 198 200 221 92 106 122 111 107 114 108 110 125 119 116 118 110 115 123 137 130 133 136 136 141 139 137 137 137 133 129 130 131 128 122 115 113 112 106
269 267 266 258 295 300 87 235 243 232 252 104 268 223 185 126 123 115 108 112 112 115 126 129 131 131 123 121 114 145 146 145 140 143 141 139 139 138 137 135 135 135 131 126 118 119 123 115 100
242 253 267 277 264 316 128 242 213 236 210 174 58 284 87 131 125 113 110 110 114 118 123 124 133 139 141 144 145 163 158 148 144 141 141 132 131 133 129 144 141 137 133 127 127 125 118 104 94
237 267 306 311 289 283 275 246 190 224 204 177 139 99 129 134 132 117 120 123 119 131 132 135 139 140 142 143 148 155 153 144 144 145 144 140 138 139 137 140 145 142 138 134 131 126 104 89 81
202 270 351 288 280 299 291 264 238 244 254 9 186 150 150 160 144 131 123 125 132 131 136 138 141 143 148 150 159 154 147 147 156 160 156 145 148 141 141 143 141 140 138 131 128 112 97 90 88
252 257 281 289 306 294 291 306 245 281 9 333 114 149 147 143 141 139 142 124 132 135 142 146 145 148 146 149 153 151 143 158 170 174 158 156 153 153 153 158 156 151 150 148 134 115 110 104 93
245 267 300 307 299 272 242 233 272 141 16 86 113 142 146 146 155 153 150 144 143 144 146 154 155 150 149 149 152 160 171 173 179 171 165 166 167 163 162 164 162 164 152 148 131 124 120 113 105
328 286 294 289 283 177 233 190 235 115 121 106 133 146 153 155 169 148 143 144 151 154 152 157 151 153 156 163 170 170 174 178 173 174 177 174 172 171 174 166 168 157 157 145 140 141 131 125 108
282 281 217 217 165 166 240 214 226 121 136 130 143 152 163 170 169 154 161 156 155 155 153 158 159 165 171 173 171 171 175 178 179 179 177 181 179 181 176 174 169 166 162 152 144 140 137 125 120
260 258 252 139 172 148 242 88 116 162 170 152 163 167 201 174 179 150 150 153 156 157 166 169 175 175 169 176 176 178 179 179 184 187 186 189 189 189 181 178 177 174 168 161 165 155 154 161 138
217 260 241 151 205 178 228 314 120 169 191 171 175 170 183 171 180 172 169 164 166 166 168 177 180 181 186 185 180 181 180 188 193 196 203 203 200 197 192 191 188 179 175 172 165 166 168 162 172
208 226 219 226 168 219 211 264 152 181 196 199 186 176 181 184 186 180 177 175 176 175 184 187 188 196 195 190 185 187 192 199 201 204 211 209 206 203 194 195 190 182 179 179 178 167 172 182 199
247 228 234 105 110 227 243 280 282 191 204 203 195 188 189 188 185 181 186 183 186 191 193 194 196 201 200 197 193 199 200 205 208 210 215 207 205 202 195 196 190 186 191 187 175 172 176 182 186
236 220 209 150 142 248 247 275 317 197 211 212 209 203 197 191 184 188 192 194 196 197 201 201 203 204 205 205 205 208 209 213 214 217 217 214 211 201 195 199 193 189 194 182 180 183 182 184 187
232 264 195 308 202 241 273 252 204 189 214 211 221 221 211 202 198 195 199 202 203 205 207 210 211 208 207 208 205 206 207 213 211 216 214 214 212 203 200 200 194 192 192 192 188 190 191 198 200
237 223 250 240 267 262 282 236 164 192 213 218 215 210 215 209 211 204 199 204 206 208 208 211 213 211 211 207 207 208 206 214 218 220 221 218 212 205 206 203 198 195 195 196 193 194 198 200 209
253 171 243 268 277 258 195 255 134 181 229 225 220 217 214 213 210 207 202 204 207 209 209 211 212 215 212 210 211 212 219 225 223 221 220 214 211 206 207 207 206 197 197 197 193 186 182 180 190
141 179 215 233 237 234 178 261 205 216 261 299 228 223 223 215 215 217 208 203 206 208 208 208 209 212 212 211 214 216 217 214 206 213 216 213 215 209 207 207 207 201 204 197 192 186 177 180 194
205 196 217 200 198 241 130 232 280 330 290 291 287 267 237 224 218 213 210 204 205 205 205 207 208 212 211 212 214 215 216 214 212 217 220 214 210 207 206 204 204 206 204 198 189 179 187 206 198
203 216 229 239 203 168 188 239 129 56 296 295 287 279 270 240 217 218 210 209 207 207 205 206 208 212 210 212 215 212 210 214 219 217 220 223 211 216 214 211 206 205 197 190 188 186 201 213 200
172 215 344 141 51 259 251 239 245 153 268 258 315 261 216 224 214 219 218 214 213 211 211 211 212 215 214 214 216 214 215 218 217 225 212 219 224 225 225 206 203 194 190 186 187 201 201 207 212
272 142 178 217 216 234 172 260 300 54 114 93 53 30 31 75 207 218 223 221 220 218 213 214 216 217 217 217 219 217 216 219 218 209 222 221 228 210 198 191 200 188 186 189 201 200 199 224 232
175 198 227 291 279 262 268 273 143 193 138 232 274 317 344 12 220 192 204 208 212 216 211 210 214 216 215 217 218 216 217 215 218 221 224 236 223 208 198 196 185 190 188 197 198 195 210 236 241
263 227 205 234 189 228 278 262 223 266 260 250 261 271 282 299 310 187 178 177 183 192 195 201 210 213 215 216 216 213 217 216 216 220 232 228 197 199 187 187 197 194 190 195 190 203 243 238 240